CZ-3B R/B, 43110

Orbit data source: Space-Track

CZ-3B R/B, 43110 is space debris in HEO originally from a launch on Thu, 11 Jan 2018 UTC launched from the Xichang Space Center, China (XSC). Debris objects in space refer to the collection of defunct objects orbiting the Earth. Examples of debris include non-operational satellites, rocket bodies, and fragments generated from explosions, collisions, or faulty payload assembly.

Loading next visibility...
Identifier
43110, 2018-003D
Orbit
HEO
Country
Flag of CNCN / PRC
Related business
Manufacturer
CALT
Mission
Spacecraft
Bus & Motor
CZ-3A STAGE 3, Unknown motor
Mass
~2,800 kg wet, ~2,800 kg dry
Launch date (UTC)
2018-01-11 (8 years ago)
Launch vehicle
Unknown
Launch site
Xichang Space Center, China (XSC)
Object type
Payload
Rocket body
Debris
Shape & HBR
Cyl + 1 Nozzle, 6.2 m
Radar Cross Section
32.704 m², Large (>1 m²)

Expand to show TLE details & history
Last TLE update: 2 days ago

TLE from 2 days ago
0 CZ-3B R/B
1 43110U 18003D   26171.40149806  .00001920  00000-0  73396-3 0  9993
2 43110  54.8702 125.8507 5618629  66.5084 341.6296  4.57436315140106
Epoch: 2026-06-20T09:38Z
TLE epoch observation values (Epoch: 2026-06-20T09:38:09.432Z)
Latitude
0.00001°
Longitude
72.68558°
Altitude
2,189.266 km
Speed
8.189 km/s
True Right ascension
08h 23m 21s
True Declination
0° 00' 00"
Sunlit
Object was in daylight at epoch
Visualization orbit readout
Latitude
Unknown
Longitude
Unknown
Altitude
Unknown
Speed
Unknown
Apparent Right ascension
Unknown
Apparent Declination
Unknown
Sunlit
N/A
Visualization observer readout
Local Sidereal Time
21:42:38
Azimuth
Unknown
Elevation
Unknown
Doppler factor
Unknown
Orbital elements
Apogee altitude
17,563.699 km
Perigee altitude
338.078 km
Semi-major axis
15,329.025 km
Eccentricity
0.56186
Inclination
54.8702°
RAAN
125.8507°
Arg. of periapsis
66.5084°
True anomaly
293.43893°
Mean anomaly
341.6296°
Eccentric anomaly
321.65966°
Mean motion
1.14359 °/min
Orbital period
314.8 mins
BSTAR
0.00073396
Loading maneuver chart data...
Computing Atmospheric mass density...
Loading historical data...
Loading historical data...
Loading historical data...
Loading historical data...
Loading historical data...
Loading historical data...
Loading historical data...
Other satellites on launch #3 in the year 2018 (2018-01-11 UTC)

Documentation

Showing up to 5 results
|